This is the latest recevied weather packets stored in our database for station/object KJ4YLO. If no packets are shown the sender has not sent any weather packets the latest 10 day(s).
| Time | Temp. | Humidity | Pressure | Rain* | Wind** | Luminosity | Snow |
|---|---|---|---|---|---|---|---|
| 1777306430 | 16.11° C | 62% | 1024.6 hPa | 0 mm | - | 253 W/m² | - |
| 1777306125 | 16.11° C | 62% | 1024.6 hPa | 0 mm | - | 263 W/m² | - |
| 1777305821 | 15.56° C | 64% | 1024.6 hPa | 0 mm | - | 224 W/m² | - |
| 1777305517 | 15.56° C | 63% | 1024.6 hPa | 0 mm | - | 234 W/m² | - |
| 1777305213 | 15° C | 65% | 1024.6 hPa | 0 mm | - | 239 W/m² | - |
| 1777304908 | 15° C | 65% | 1024.9 hPa | 0 mm | - | 211 W/m² | - |
| 1777304605 | 15° C | 64% | 1024.9 hPa | 0 mm | - | 174 W/m² | - |
| 1777304301 | 15° C | 65% | 1024.9 hPa | 0 mm | - | 145 W/m² | - |
| 1777303999 | 15° C | 65% | 1024.9 hPa | 0 mm | - | 155 W/m² | - |
| 1777303695 | 15° C | 65% | 1024.6 hPa | 0 mm | - | 163 W/m² | - |
| 1777303393 | 15° C | 66% | 1024.6 hPa | 0 mm | - | 158 W/m² | - |
| 1777303090 | 15° C | 65% | 1024.3 hPa | 0 mm | - | 173 W/m² | - |
| 1777302789 | 15° C | 66% | 1024.6 hPa | 0 mm | - | 162 W/m² | - |
| 1777302486 | 15° C | 65% | 1024.3 hPa | 0 mm | - | 158 W/m² | - |
| 1777302184 | 15° C | 66% | 1024.6 hPa | 0 mm | - | 166 W/m² | - |
| 1777301881 | 15° C | 66% | 1024.3 hPa | 0 mm | - | 195 W/m² | - |
| 1777301578 | 15° C | 64% | 1023.9 hPa | 0 mm | - | 197 W/m² | - |
| 1777301275 | 15° C | 65% | 1024.3 hPa | 0 mm | - | 175 W/m² | - |
| 1777300972 | 15° C | 66% | 1024.3 hPa | 0 mm | - | 189 W/m² | - |
| 1777300670 | 15° C | 66% | 1024.3 hPa | 0 mm | - | 198 W/m² | - |
| 1777300367 | 15° C | 65% | 1024.3 hPa | 0 mm | - | 194 W/m² | - |
| 1777300064 | 15° C | 65% | 1023.9 hPa | 0 mm | - | 177 W/m² | - |
| 1777299761 | 15° C | 65% | 1024.3 hPa | 0 mm | - | 154 W/m² | - |
| 1777299458 | 14.44° C | 66% | 1024.3 hPa | 0 mm | - | 162 W/m² | - |
| 1777299156 | 14.44° C | 67% | 1024.3 hPa | 0 mm | - | 147 W/m² | - |
* Rain latest hour (hover to see other rain measurements)
** Current wind speed in m/s (hover to see current wind gust speed)